Location: East Horndon
(51.5667°N, 0.3500°E)
Time: 13:21:18
(UTC+00:00)

NOSS 3-1 (C) - Visible Passes

Search period start: 14 February 2026 00:00
Search period end: 24 February 2026 00:00
Orbit: 618 x 1583 km, 63.4° (Epoch: 10 January)

Date Brightness Start Highest point End Pass type
(mag) Time Alt. Az. Time Alt. Az. Time Alt. Az.
14 Feb 5.5 03:42:48 10° SE 03:44:54 13° ESE 03:47:08 10° E visible
14 Feb 3.1 05:29:54 12° SW 05:34:14 75° SE 05:40:02 10° NE visible
15 Feb 3.8 04:45:27 24° S 04:48:03 47° ESE 04:53:25 10° NE visible
15 Feb 3.6 06:33:58 10° WSW 06:38:46 45° NNW 06:44:43 10° NE visible
16 Feb 4.5 04:00:52 25° SE 04:02:02 28° ESE 04:06:38 10° ENE visible
16 Feb 3.1 05:48:12 16° WSW 05:52:10 62° NW 05:58:09 10° NE visible
17 Feb 5.3 03:16:12 17° ESE 03:16:12 17° ESE 03:19:24 10° ENE visible
17 Feb 2.9 05:03:32 34° SW 05:05:44 90° SE 05:11:38 10° NE visible
18 Feb 3.3 04:18:47 53° SSE 04:19:28 58° SE 04:25:03 10° NE visible
18 Feb 3.8 06:06:07 13° W 06:10:25 41° NNW 06:16:19 10° NE visible
19 Feb 4.3 03:33:59 34° ESE 03:33:59 34° ESE 03:38:21 10° NE visible
19 Feb 3.3 05:21:19 29° W 05:23:45 54° NW 05:29:44 10° NE visible
20 Feb 5.3 02:49:08 18° E 02:49:08 18° E 02:51:22 10° ENE visible
20 Feb 2.9 04:36:27 62° WSW 04:37:15 77° NW 04:43:12 10° NE visible
20 Feb 4.3 06:24:10 10° WNW 06:28:55 31° NNW 06:34:41 10° NE visible
21 Feb 3.3 03:51:33 63° E 03:51:33 63° E 03:56:39 10° NE visible
21 Feb 4.0 05:38:51 19° W 05:42:05 37° NNW 05:47:56 10° NE visible
22 Feb 4.6 03:06:36 31° ENE 03:06:36 31° ENE 03:10:01 10° NE visible
22 Feb 3.5 04:53:55 38° WNW 04:55:22 47° NNW 05:01:19 10° NE visible
23 Feb 5.5 02:21:38 16° ENE 02:21:38 16° ENE 02:23:10 10° ENE visible
23 Feb 3.1 04:08:56 65° NNW 04:08:56 65° NNW 04:14:45 10° NE visible
23 Feb 4.5 05:56:15 12° WNW 06:00:37 30° N 06:06:23 10° NE visible
